Precipitable_Water
1.36 1.24 1.15 1.11 1.10 1.08 1.02 0.95 0.87 0.74 0.81 0.90 0.97 1.03 1.08 1.13 1.15 1.20 1.24 1.24 1.22 1.19 1.19 1.21 1.18 1.12 1.13 1.19 1.25 1.30 1.37 1.41 1.44 1.43 1.45 1.45 1.44 1.45 1.44 1.46 1.41 1.41 1.40 1.40 1.37 1.35 1.31 1.28 1.25 1.24 1.21 1.20 1.18 1.18 1.19 1.18 1.20 1.21 1.23 1.31 1.33 1.32 1.30 1.23 1.18 1.15 1.11 1.04 1.00 1.02 0.97 0.94 0.92 0.88 0.86 0.84 0.86 0.96 1.00 1.03 1.05 1.03 1.02 1.02 1.01
1.35 1.34 1.18 1.15 1.12 1.09 1.04 0.97 0.88 0.74 0.79 0.89 0.96 1.02 1.07 1.11 1.15 1.18 1.19 1.19 1.19 1.20 1.25 1.26 1.28 1.31 1.33 1.35 1.37 1.38 1.40 1.40 1.41 1.42 1.46 1.49 1.49 1.44 1.46 1.41 1.38 1.37 1.35 1.36 1.35 1.31 1.26 1.21 1.20 1.17 1.15 1.14 1.15 1.16 1.13 1.06 1.01 0.97 0.98 1.05 1.09 1.09 1.09 1.07 1.05 1.05 1.01 1.04 0.97 0.87 0.88 0.91 0.88 0.82 0.80 0.77 0.76 0.83 0.93 0.95 0.95 0.99 0.95 0.98 0.98
1.45 1.36 1.25 1.16 1.14 1.09 1.04 0.98 0.89 0.74 0.75 0.84 0.92 0.98 1.02 1.06 1.09 1.13 1.16 1.17 1.18 1.23 1.26 1.31 1.36 1.39 1.39 1.40 1.42 1.41 1.40 1.40 1.41 1.42 1.46 1.50 1.50 1.46 1.42 1.41 1.38 1.39 1.37 1.33 1.30 1.26 1.21 1.17 1.14 1.10 1.10 1.14 1.17 1.14 1.07 0.98 0.83 0.75 0.71 0.74 0.81 0.88 0.94 0.97 0.98 0.96 0.99 0.96 0.88 0.79 0.82 0.85 0.85 0.82 0.78 0.77 0.76 0.75 0.82 0.89 0.89 0.87 0.89 0.91 0.92
1.41 1.36 1.28 1.20 1.15 1.10 1.06 1.02 0.92 0.75 0.76 0.83 0.87 0.91 0.96 1.01 1.06 1.11 1.15 1.19 1.20 1.26 1.32 1.35 1.38 1.40 1.42 1.42 1.42 1.41 1.41 1.42 1.43 1.44 1.45 1.49 1.49 1.49 1.46 1.45 1.41 1.39 1.34 1.28 1.22 1.20 1.18 1.16 1.13 1.13 1.19 1.22 1.22 1.19 1.13 0.98 0.81 0.76 0.76 0.74 0.76 0.81 0.87 0.90 0.90 0.91 0.91 0.83 0.81 0.92 0.89 0.83 0.78 0.79 0.80 0.78 0.77 0.77 0.78 0.80 0.78 0.81 0.83 0.84 0.84
1.44 1.37 1.28 1.21 1.17 1.12 1.06 1.02 0.94 0.76 0.76 0.83 0.87 0.91 0.94 0.98 1.04 1.09 1.14 1.19 1.25 1.31 1.36 1.37 1.38 1.39 1.41 1.41 1.44 1.43 1.42 1.42 1.43 1.45 1.46 1.49 1.48 1.48 1.48 1.45 1.38 1.35 1.30 1.25 1.20 1.18 1.15 1.14 1.18 1.24 1.28 1.28 1.26 1.26 1.19 1.00 0.81 0.80 0.81 0.81 0.80 0.82 0.85 0.89 0.89 0.87 0.83 0.78 0.83 0.91 0.82 0.79 0.76 0.74 0.76 0.80 0.78 0.79 0.81 0.81 0.80 0.80 0.78 0.80 0.79
1.48 1.41 1.25 1.22 1.20 1.15 1.08 1.02 0.95 0.77 0.78 0.85 0.88 0.91 0.95 0.99 1.03 1.08 1.11 1.21 1.30 1.34 1.36 1.36 1.36 1.38 1.40 1.42 1.43 1.44 1.44 1.45 1.46 1.47 1.48 1.48 1.47 1.44 1.43 1.39 1.36 1.32 1.26 1.24 1.22 1.17 1.14 1.17 1.28 1.32 1.30 1.28 1.26 1.23 1.10 0.90 0.83 0.81 0.80 0.79 0.79 0.79 0.80 0.80 0.81 0.81 0.82 0.78 0.89 0.92 0.88 0.89 0.84 0.82 0.83 0.83 0.78 0.78 0.79 0.79 0.80 0.79 0.82 0.84 0.83
1.49 1.42 1.27 1.23 1.22 1.17 1.10 1.03 0.96 0.79 0.79 0.87 0.89 0.93 0.97 1.00 1.04 1.09 1.16 1.25 1.30 1.32 1.34 1.35 1.36 1.38 1.41 1.42 1.45 1.46 1.46 1.45 1.45 1.44 1.45 1.44 1.42 1.40 1.36 1.32 1.32 1.28 1.25 1.23 1.19 1.13 1.11 1.21 1.33 1.31 1.31 1.29 1.24 1.18 1.07 0.94 0.86 0.82 0.81 0.80 0.79 0.79 0.77 0.75 0.74 0.73 0.84 1.02 0.95 0.97 0.97 0.93 0.90 0.87 0.88 0.85 0.82 0.78 0.76 0.76 0.77 0.77 0.78 0.80 0.83
1.51 1.40 1.29 1.23 1.21 1.17 1.10 1.04 0.97 0.80 0.79 0.88 0.90 0.93 0.97 1.01 1.05 1.10 1.17 1.23 1.27 1.29 1.33 1.36 1.38 1.39 1.42 1.43 1.45 1.44 1.45 1.43 1.42 1.40 1.39 1.36 1.33 1.31 1.29 1.28 1.28 1.26 1.23 1.21 1.19 1.15 1.14 1.28 1.31 1.28 1.30 1.26 1.18 1.08 0.99 0.91 0.84 0.83 0.83 0.84 0.83 0.81 0.78 0.74 0.67 0.73 0.82 0.88 0.92 0.98 0.95 0.90 0.91 0.89 0.87 0.86 0.82 0.82 0.81 0.79 0.80 0.80 0.81 0.85 0.87
1.45 1.39 1.32 1.25 1.23 1.16 1.10 1.04 1.00 0.83 0.79 0.87 0.91 0.93 0.98 1.02 1.06 1.11 1.16 1.21 1.25 1.30 1.35 1.37 1.36 1.38 1.41 1.43 1.44 1.42 1.43 1.40 1.37 1.35 1.33 1.31 1.30 1.28 1.25 1.23 1.24 1.23 1.20 1.17 1.17 1.16 1.14 1.28 1.30 1.27 1.22 1.14 1.06 1.00 0.93 0.88 0.89 0.89 0.88 0.86 0.84 0.83 0.79 0.74 0.78 0.85 0.87 0.84 0.93 0.96 0.94 0.92 0.91 0.90 0.87 0.85 0.85 0.85 0.87 0.91 0.86 0.84 0.85 0.86 0.85
1.45 1.41 1.33 1.27 1.23 1.16 1.10 1.06 1.01 0.88 0.81 0.86 0.91 0.95 0.99 1.03 1.07 1.14 1.18 1.25 1.31 1.34 1.36 1.36 1.35 1.36 1.39 1.41 1.40 1.41 1.39 1.38 1.34 1.32 1.29 1.25 1.22 1.19 1.18 1.15 1.15 1.15 1.14 1.11 1.13 1.15 1.13 1.24 1.24 1.19 1.10 1.04 1.00 0.94 0.93 0.95 0.95 0.94 0.91 0.90 0.87 0.84 0.81 0.74 0.78 0.87 0.89 0.90 0.91 0.95 0.97 0.95 0.93 0.90 0.90 0.90 0.88 0.89 0.92 0.97 0.95 0.93 0.93 0.92 0.90
1.44 1.38 1.32 1.27 1.22 1.16 1.11 1.08 1.02 0.93 0.83 0.85 0.92 0.97 1.00 1.03 1.06 1.16 1.23 1.27 1.31 1.32 1.34 1.35 1.35 1.34 1.37 1.39 1.42 1.40 1.37 1.35 1.30 1.22 1.17 1.13 1.12 1.11 1.12 1.08 1.02 1.02 1.07 1.07 1.07 1.10 1.13 1.18 1.21 1.12 1.05 1.00 0.96 0.95 0.96 1.00 1.01 0.99 0.94 0.93 0.89 0.85 0.85 0.93 0.96 0.95 0.94 0.88 0.87 0.88 0.90 0.94 0.93 0.87 0.88 0.88 0.92 0.92 0.93 0.99 1.00 0.99 0.97 0.95 0.93
1.39 1.36 1.31 1.31 1.22 1.17 1.13 1.11 1.05 0.96 0.87 0.85 0.92 0.99 1.03 1.05 1.08 1.15 1.22 1.26 1.29 1.31 1.32 1.35 1.34 1.34 1.35 1.37 1.37 1.35 1.29 1.23 1.17 1.12 1.08 1.07 1.06 1.07 1.07 1.04 1.00 0.99 1.00 1.01 1.01 1.04 1.11 1.17 1.18 1.11 1.04 1.00 0.97 0.94 0.99 1.02 1.03 1.03 0.98 0.93 0.89 0.86 0.87 0.93 0.97 0.95 0.99 0.97 0.95 1.03 1.02 1.01 0.93 0.86 0.88 0.89 0.88 0.94 0.98 0.98 0.98 0.97 0.95 0.94 0.91
1.36 1.31 1.35 1.32 1.25 1.21 1.17 1.14 1.08 0.98 0.90 0.86 0.91 1.00 1.04 1.07 1.09 1.12 1.20 1.23 1.27 1.29 1.31 1.31 1.32 1.35 1.36 1.35 1.32 1.27 1.23 1.21 1.18 1.14 1.06 1.03 1.02 1.02 1.01 0.99 0.98 1.00 0.98 0.96 0.94 0.95 1.03 1.16 1.18 1.12 1.05 1.01 0.99 0.97 1.02 1.02 1.03 1.02 0.99 0.94 0.90 0.87 0.91 0.95 1.00 0.97 0.95 0.99 1.01 1.00 0.94 0.98 0.98 0.97 0.99 0.98 0.95 0.94 0.92 0.91 0.92 0.94 0.94 0.93 0.91
1.30 1.28 1.35 1.30 1.27 1.23 1.20 1.16 1.10 1.01 0.92 0.86 0.89 0.99 1.04 1.08 1.10 1.12 1.17 1.21 1.23 1.27 1.29 1.32 1.33 1.35 1.34 1.31 1.27 1.24 1.23 1.19 1.13 1.05 1.02 0.97 0.95 0.96 0.97 0.96 0.95 0.98 0.99 0.95 0.90 0.90 1.02 1.13 1.16 1.13 1.07 1.02 0.99 1.01 1.05 1.04 1.04 1.02 0.98 0.93 0.89 0.87 0.89 0.94 0.98 0.98 1.00 1.02 1.04 1.04 1.07 1.07 1.05 1.06 1.08 1.08 1.07 1.05 1.03 1.01 0.97 0.93 0.92 0.91 0.91
1.28 1.27 1.32 1.31 1.27 1.23 1.22 1.18 1.12 1.05 0.97 0.87 0.87 0.95 1.02 1.06 1.08 1.10 1.16 1.20 1.23 1.25 1.28 1.30 1.30 1.32 1.30 1.27 1.25 1.22 1.19 1.14 1.07 1.01 0.99 0.98 0.99 1.01 1.01 0.95 0.93 0.92 0.96 0.95 0.89 0.88 0.99 1.08 1.11 1.11 1.07 1.03 1.00 1.03 1.08 1.08 1.06 1.05 1.01 0.96 0.92 0.94 0.97 1.02 1.03 1.06 1.04 1.04 1.07 1.09 1.09 1.07 1.06 1.13 1.14 1.15 1.15 1.14 1.11 1.08 1.05 1.01 0.98 0.96 0.96
1.36 1.30 1.34 1.28 1.26 1.24 1.21 1.19 1.16 1.10 1.02 0.93 0.88 0.91 0.96 1.01 1.04 1.10 1.17 1.21 1.23 1.25 1.27 1.29 1.30 1.28 1.27 1.25 1.24 1.21 1.15 1.11 1.07 1.03 0.99 0.99 1.00 1.03 1.00 0.95 0.91 0.90 0.89 0.90 0.89 0.87 0.98 1.06 1.06 1.05 1.04 1.03 1.01 1.04 1.08 1.09 1.10 1.09 1.07 1.03 0.97 0.96 1.02 1.08 1.06 1.09 1.09 1.08 1.07 1.08 1.09 1.09 1.12 1.15 1.15 1.16 1.16 1.14 1.13 1.11 1.07 1.05 1.01 0.97 0.98
1.42 1.38 1.37 1.34 1.32 1.29 1.26 1.21 1.19 1.14 1.07 1.00 0.95 0.92 0.93 0.97 1.04 1.10 1.16 1.19 1.22 1.26 1.27 1.29 1.28 1.26 1.25 1.24 1.23 1.19 1.15 1.13 1.09 1.04 0.99 0.99 1.00 1.01 1.03 0.98 0.93 0.89 0.87 0.84 0.84 0.85 0.93 1.00 1.00 0.99 0.99 1.01 1.01 1.06 1.08 1.09 1.10 1.12 1.12 1.09 1.03 0.98 1.03 1.09 1.09 1.12 1.13 1.10 1.11 1.13 1.14 1.10 1.13 1.16 1.18 1.18 1.17 1.15 1.16 1.16 1.15 1.12 1.07 1.03 1.00
1.41 1.40 1.38 1.38 1.35 1.36 1.33 1.28 1.20 1.16 1.13 1.09 1.04 1.00 0.97 0.99 1.04 1.09 1.13 1.17 1.21 1.23 1.26 1.28 1.28 1.26 1.24 1.24 1.22 1.20 1.18 1.15 1.11 1.07 1.01 0.99 1.02 1.04 1.03 1.02 0.98 0.95 0.92 0.90 0.86 0.85 0.89 0.96 0.97 0.96 0.98 0.99 1.01 1.07 1.12 1.11 1.11 1.12 1.13 1.12 1.10 1.06 1.06 1.10 1.12 1.12 1.08 1.09 1.10 1.11 1.15 1.03 1.12 1.17 1.19 1.19 1.17 1.17 1.16 1.16 1.16 1.16 1.14 1.11 1.06
1.40 1.39 1.39 1.38 1.34 1.39 1.38 1.34 1.28 1.22 1.20 1.18 1.14 1.08 1.03 1.01 1.04 1.07 1.11 1.15 1.18 1.23 1.25 1.25 1.26 1.25 1.25 1.25 1.24 1.22 1.19 1.16 1.14 1.09 1.05 1.03 1.01 1.06 1.08 1.07 1.04 1.02 0.94 0.88 0.86 0.86 0.89 0.93 0.95 0.95 0.98 1.01 1.05 1.10 1.14 1.16 1.14 1.14 1.13 1.14 1.13 1.10 1.11 1.13 1.13 1.10 1.10 1.16 1.15 1.16 1.06 1.06 1.13 1.17 1.17 1.16 1.15 1.16 1.15 1.15 1.19 1.19 1.18 1.16 1.13
1.40 1.41 1.38 1.41 1.40 1.43 1.42 1.38 1.34 1.31 1.29 1.26 1.21 1.13 1.08 1.02 1.04 1.08 1.12 1.14 1.17 1.21 1.22 1.23 1.25 1.25 1.26 1.25 1.24 1.21 1.22 1.19 1.15 1.13 1.10 1.08 1.10 1.10 1.05 1.07 1.08 1.04 0.98 0.91 0.85 0.83 0.87 0.93 0.94 0.92 0.95 1.01 1.07 1.13 1.16 1.18 1.16 1.15 1.15 1.16 1.13 1.13 1.15 1.20 1.12 1.11 1.14 1.12 1.13 1.18 1.01 1.06 1.10 1.13 1.14 1.13 1.14 1.14 1.15 1.14 1.15 1.15 1.17 1.17 1.17
1.39 1.42 1.41 1.42 1.44 1.46 1.48 1.40 1.41 1.39 1.37 1.33 1.29 1.21 1.12 1.04 1.04 1.08 1.11 1.14 1.18 1.22 1.25 1.25 1.24 1.24 1.23 1.23 1.23 1.36 1.36 1.29 1.31 1.22 1.16 1.17 1.11 1.08 1.06 1.07 1.09 1.07 1.02 0.94 0.87 0.83 0.84 0.88 0.90 0.91 0.93 0.98 1.05 1.11 1.15 1.17 1.17 1.16 1.15 1.16 1.16 1.16 1.21 1.19 1.18 1.12 1.15 1.13 1.17 1.23 1.04 1.07 1.08 1.09 1.11 1.11 1.14 1.16 1.15 1.13 1.14 1.17 1.17 1.18 1.17
1.32 1.38 1.42 1.44 1.45 1.49 1.47 1.47 1.50 1.45 1.43 1.39 1.36 1.29 1.16 1.10 1.05 1.07 1.11 1.13 1.18 1.21 1.22 1.24 1.23 1.24 1.22 1.21 1.31 1.39 1.37 1.33 1.34 1.23 1.27 1.27 1.21 1.13 1.11 1.11 1.11 1.08 1.02 0.96 0.89 0.87 0.86 0.87 0.87 0.87 0.91 0.97 1.03 1.13 1.12 1.14 1.17 1.18 1.17 1.18 1.18 1.24 1.20 1.20 1.18 1.20 1.16 1.20 1.21 1.17 1.11 1.13 1.12 1.09 1.10 1.11 1.14 1.18 1.17 1.13 1.15 1.14 1.17 1.18 1.18
1.26 1.34 1.41 1.46 1.50 1.52 1.53 1.52 1.51 1.47 1.44 1.41 1.39 1.34 1.24 1.15 1.08 1.07 1.13 1.15 1.16 1.20 1.22 1.18 1.19 1.20 1.21 1.25 1.27 1.26 1.27 1.29 1.32 1.27 1.31 1.29 1.27 1.19 1.17 1.14 1.15 1.12 1.07 1.00 0.95 0.91 0.88 0.85 0.86 0.85 0.87 0.94 1.01 1.16 1.25 1.25 1.19 1.16 1.19 1.20 1.23 1.27 1.24 1.19 1.19 1.20 1.21 1.24 1.25 1.17 1.16 1.19 1.20 1.13 1.13 1.12 1.17 1.20 1.18 1.17 1.15 1.16 1.17 1.18 1.18
1.27 1.33 1.41 1.52 1.55 1.54 1.56 1.56 1.51 1.48 1.43 1.41 1.39 1.36 1.30 1.20 1.11 1.10 1.10 1.17 1.17 1.19 1.23 1.20 1.21 1.21 1.19 1.23 1.23 1.24 1.22 1.25 1.21 1.20 1.15 1.24 1.19 1.12 1.22 1.20 1.16 1.11 1.05 1.01 0.95 0.93 0.87 0.84 0.82 0.83 0.82 0.86 1.03 1.10 1.13 1.22 1.30 1.25 1.20 1.22 1.23 1.26 1.26 1.23 1.21 1.22 1.24 1.22 1.28 1.22 1.18 1.22 1.23 1.20 1.17 1.17 1.19 1.20 1.21 1.19 1.21 1.20 1.18 1.18 1.16
1.33 1.40 1.46 1.48 1.53 1.56 1.57 1.54 1.53 1.50 1.46 1.41 1.37 1.34 1.30 1.23 1.14 1.10 1.12 1.17 1.19 1.18 1.21 1.18 1.19 1.20 1.19 1.20 1.21 1.21 1.19 1.23 1.24 1.28 1.23 1.16 1.17 1.13 1.14 1.24 1.24 1.20 1.02 1.11 1.11 1.08 0.96 0.95 0.79 0.77 0.90 0.92 0.98 1.03 1.07 1.12 1.22 1.30 1.27 1.27 1.25 1.26 1.26 1.26 1.24 1.25 1.26 1.27 1.29 1.25 1.22 1.24 1.25 1.23 1.22 1.20 1.21 1.22 1.21 1.23 1.26 1.25 1.19 1.17 1.16
1.37 1.35 1.40 1.47 1.52 1.57 1.56 1.53 1.51 1.51 1.47 1.42 1.36 1.34 1.28 1.21 1.15 1.08 1.07 1.11 1.14 1.16 1.15 1.16 1.15 1.17 1.15 1.16 1.18 1.18 1.18 1.18 1.18 1.17 1.15 1.18 1.15 1.15 1.18 1.15 1.12 1.15 1.04 1.14 1.14 1.13 1.12 1.04 0.96 0.91 0.87 0.88 0.94 1.00 1.04 1.06 1.11 1.19 1.22 1.24 1.24 1.25 1.23 1.26 1.29 1.27 1.27 1.28 1.31 1.25 1.25 1.26 1.25 1.26 1.23 1.23 1.22 1.23 1.26 1.30 1.30 1.26 1.23 1.18 1.16
1.33 1.36 1.44 1.47 1.54 1.54 1.53 1.52 1.51 1.51 1.49 1.43 1.38 1.31 1.26 1.23 1.18 1.07 1.05 1.03 1.08 1.08 1.09 1.11 1.12 1.12 1.14 1.15 1.14 1.15 1.17 1.16 1.19 1.21 1.28 1.36 1.40 1.41 1.42 1.37 1.26 1.17 1.10 1.11 1.09 1.10 1.09 1.10 1.04 0.97 0.91 0.85 0.88 0.95 0.99 1.04 1.09 1.16 1.23 1.22 1.24 1.25 1.26 1.26 1.28 1.32 1.33 1.32 1.33 1.26 1.25 1.28 1.26 1.25 1.26 1.25 1.24 1.25 1.30 1.33 1.32 1.30 1.28 1.22 1.18
1.33 1.38 1.43 1.46 1.48 1.46 1.50 1.50 1.51 1.50 1.47 1.42 1.35 1.26 1.24 1.21 1.15 1.05 1.05 1.06 1.05 1.05 1.06 1.07 1.09 1.12 1.15 1.17 1.17 1.20 1.20 1.28 1.37 1.44 1.49 1.56 1.57 1.58 1.56 1.54 1.51 1.46 1.44 1.38 1.31 1.24 1.17 1.15 1.14 1.11 1.07 1.02 0.93 0.89 0.93 0.99 1.06 1.14 1.18 1.21 1.22 1.26 1.27 1.27 1.29 1.31 1.34 1.35 1.37 1.32 1.28 1.27 1.28 1.27 1.29 1.29 1.27 1.29 1.28 1.32 1.33 1.34 1.31 1.25 1.21
1.28 1.37 1.42 1.43 1.44 1.46 1.48 1.47 1.49 1.48 1.45 1.39 1.29 1.25 1.23 1.18 1.11 1.07 1.07 1.05 1.06 1.06 1.06 1.08 1.09 1.13 1.17 1.20 1.24 1.30 1.38 1.48 1.54 1.58 1.65 1.64 1.62 1.58 1.55 1.50 1.49 1.52 1.51 1.48 1.45 1.41 1.35 1.24 1.19 1.16 1.15 1.12 1.12 1.05 0.97 0.97 1.06 1.14 1.16 1.20 1.22 1.23 1.25 1.26 1.26 1.31 1.34 1.37 1.44 1.44 1.36 1.30 1.30 1.30 1.31 1.34 1.34 1.33 1.31 1.29 1.33 1.36 1.35 1.30 1.23
1.31 1.37 1.39 1.42 1.45 1.47 1.45 1.44 1.46 1.44 1.40 1.32 1.25 1.21 1.17 1.12 1.10 1.11 1.09 1.06 1.07 1.07 1.10 1.10 1.14 1.17 1.24 1.35 1.43 1.49 1.55 1.61 1.63 1.64 1.60 1.60 1.58 1.55 1.50 1.49 1.51 1.48 1.47 1.42 1.42 1.43 1.40 1.40 1.35 1.23 1.16 1.19 1.14 1.16 1.14 1.07 1.07 1.08 1.17 1.18 1.25 1.28 1.33 1.32 1.30 1.30 1.34 1.40 1.44 1.44 1.39 1.36 1.34 1.32 1.33 1.37 1.37 1.37 1.32 1.29 1.34 1.38 1.39 1.35 1.27
1.33 1.32 1.38 1.40 1.45 1.44 1.42 1.45 1.44 1.40 1.33 1.23 1.20 1.17 1.14 1.11 1.10 1.11 1.09 1.10 1.11 1.12 1.14 1.20 1.25 1.31 1.40 1.50 1.54 1.59 1.61 1.61 1.57 1.54 1.53 1.54 1.52 1.45 1.45 1.49 1.46 1.44 1.43 1.38 1.43 1.40 1.41 1.39 1.37 1.37 1.29 1.23 1.19 1.21 1.21 1.14 1.15 1.15 1.19 1.26 1.31 1.40 1.44 1.45 1.40 1.37 1.37 1.44 1.46 1.47 1.45 1.41 1.36 1.34 1.33 1.37 1.40 1.39 1.36 1.32 1.36 1.39 1.42 1.40 1.31
1.35 1.35 1.38 1.43 1.40 1.40 1.41 1.44 1.40 1.34 1.24 1.18 1.16 1.12 1.10 1.10 1.09 1.12 1.12 1.15 1.18 1.21 1.28 1.35 1.39 1.41 1.47 1.51 1.54 1.54 1.54 1.54 1.54 1.53 1.52 1.47 1.43 1.44 1.44 1.40 1.38 1.41 1.40 1.37 1.37 1.40 1.39 1.40 1.40 1.39 1.37 1.33 1.25 1.21 1.22 1.18 1.17 1.20 1.25 1.29 1.33 1.39 1.44 1.45 1.44 1.41 1.37 1.40 1.46 1.47 1.50 1.44 1.40 1.34 1.34 1.37 1.39 1.40 1.40 1.36 1.37 1.42 1.43 1.43 1.35
1.40 1.41 1.41 1.41 1.35 1.39 1.39 1.41 1.37 1.27 1.18 1.14 1.14 1.13 1.12 1.10 1.12 1.16 1.22 1.27 1.32 1.37 1.40 1.45 1.46 1.47 1.48 1.50 1.52 1.55 1.56 1.56 1.56 1.52 1.45 1.42 1.42 1.40 1.42 1.39 1.39 1.38 1.37 1.36 1.36 1.37 1.37 1.36 1.36 1.38 1.35 1.34 1.30 1.29 1.25 1.22 1.19 1.23 1.27 1.30 1.36 1.39 1.43 1.46 1.45 1.44 1.41 1.39 1.39 1.46 1.50 1.55 1.50 1.39 1.36 1.38 1.42 1.42 1.41 1.40 1.41 1.45 1.45 1.44 1.38
1.38 1.41 1.42 1.36 1.35 1.39 1.41 1.39 1.33 1.23 1.17 1.17 1.18 1.14 1.15 1.18 1.25 1.33 1.37 1.41 1.43 1.43 1.45 1.48 1.50 1.51 1.52 1.52 1.53 1.54 1.53 1.54 1.50 1.44 1.43 1.41 1.44 1.40 1.36 1.36 1.40 1.36 1.34 1.34 1.32 1.32 1.30 1.30 1.30 1.31 1.30 1.29 1.27 1.27 1.28 1.28 1.26 1.24 1.27 1.30 1.32 1.36 1.42 1.44 1.42 1.42 1.43 1.42 1.46 1.47 1.48 1.49 1.55 1.55 1.43 1.41 1.44 1.45 1.41 1.41 1.44 1.48 1.47 1.44 1.42
1.41 1.39 1.38 1.37 1.33 1.35 1.39 1.36 1.31 1.22 1.19 1.19 1.18 1.17 1.22 1.30 1.39 1.44 1.46 1.48 1.47 1.46 1.48 1.50 1.50 1.51 1.52 1.52 1.52 1.50 1.48 1.44 1.42 1.40 1.40 1.40 1.37 1.34 1.34 1.35 1.35 1.34 1.30 1.30 1.27 1.28 1.28 1.26 1.29 1.24 1.27 1.28 1.27 1.27 1.28 1.27 1.29 1.31 1.29 1.29 1.30 1.33 1.39 1.39 1.42 1.43 1.46 1.49 1.52 1.52 1.51 1.49 1.46 1.51 1.53 1.50 1.50 1.50 1.44 1.40 1.43 1.49 1.50 1.47 1.45
1.42 1.40 1.41 1.43 1.34 1.34 1.38 1.35 1.28 1.23 1.23 1.22 1.23 1.23 1.32 1.42 1.47 1.50 1.50 1.51 1.49 1.49 1.52 1.52 1.53 1.54 1.53 1.52 1.49 1.46 1.42 1.40 1.38 1.38 1.36 1.38 1.34 1.32 1.34 1.33 1.31 1.28 1.25 1.24 1.24 1.20 1.23 1.24 1.27 1.25 1.20 1.20 1.23 1.23 1.29 1.28 1.31 1.32 1.37 1.39 1.37 1.33 1.28 1.30 1.34 1.38 1.42 1.46 1.50 1.55 1.57 1.53 1.49 1.47 1.46 1.49 1.54 1.54 1.50 1.44 1.42 1.46 1.50 1.49 1.46
1.47 1.41 1.38 1.40 1.38 1.35 1.37 1.34 1.26 1.25 1.25 1.27 1.28 1.30 1.40 1.46 1.50 1.52 1.54 1.54 1.52 1.52 1.54 1.54 1.53 1.51 1.52 1.50 1.47 1.42 1.39 1.38 1.38 1.38 1.35 1.34 1.33 1.31 1.31 1.29 1.28 1.25 1.21 1.20 1.17 1.18 1.17 1.14 1.18 1.25 1.24 1.16 1.18 1.20 1.24 1.27 1.28 1.31 1.35 1.36 1.36 1.33 1.29 1.28 1.31 1.31 1.34 1.33 1.31 1.39 1.51 1.51 1.48 1.45 1.46 1.47 1.48 1.52 1.55 1.49 1.44 1.45 1.49 1.48 1.46
1.49 1.45 1.41 1.40 1.38 1.37 1.37 1.35 1.31 1.31 1.33 1.32 1.34 1.37 1.44 1.49 1.52 1.54 1.56 1.53 1.53 1.53 1.52 1.51 1.50 1.50 1.48 1.45 1.44 1.40 1.39 1.40 1.38 1.37 1.35 1.33 1.30 1.27 1.26 1.26 1.24 1.21 1.18 1.16 1.15 1.17 1.17 1.14 1.10 1.17 1.20 1.19 1.16 1.16 1.18 1.22 1.25 1.25 1.27 1.30 1.31 1.32 1.32 1.33 1.32 1.31 1.31 1.33 1.32 1.33 1.43 1.51 1.52 1.52 1.52 1.52 1.51 1.52 1.58 1.57 1.52 1.46 1.50 1.50 1.48
1.51 1.46 1.41 1.40 1.39 1.37 1.38 1.36 1.37 1.39 1.38 1.39 1.41 1.45 1.49 1.52 1.54 1.54 1.51 1.49 1.48 1.50 1.50 1.45 1.48 1.49 1.47 1.46 1.42 1.40 1.38 1.38 1.37 1.34 1.29 1.30 1.27 1.25 1.24 1.24 1.21 1.20 1.17 1.14 1.14 1.15 1.16 1.16 1.10 1.10 1.16 1.18 1.15 1.15 1.16 1.18 1.18 1.19 1.20 1.22 1.25 1.27 1.30 1.32 1.32 1.33 1.36 1.37 1.38 1.42 1.47 1.49 1.52 1.54 1.54 1.55 1.55 1.55 1.57 1.58 1.58 1.54 1.52 1.51 1.49
1.52 1.49 1.41 1.39 1.38 1.39 1.40 1.39 1.42 1.44 1.44 1.44 1.46 1.46 1.45 1.45 1.43 1.46 1.43 1.43 1.43 1.42 1.46 1.46 1.48 1.47 1.45 1.42 1.40 1.40 1.41 1.38 1.34 1.33 1.31 1.28 1.24 1.21 1.21 1.19 1.17 1.14 1.11 1.09 1.10 1.11 1.12 1.10 1.09 1.10 1.08 1.11 1.17 1.16 1.17 1.15 1.14 1.14 1.14 1.14 1.15 1.16 1.18 1.21 1.22 1.23 1.26 1.31 1.36 1.40 1.40 1.44 1.46 1.51 1.56 1.59 1.58 1.58 1.56 1.54 1.55 1.56 1.54 1.55 1.52
1.47 1.48 1.44 1.41 1.42 1.41 1.39 1.36 1.44 1.48 1.45 1.44 1.44 1.42 1.38 1.40 1.43 1.39 1.35 1.40 1.40 1.43 1.40 1.45 1.48 1.46 1.43 1.41 1.39 1.39 1.39 1.37 1.34 1.33 1.28 1.27 1.22 1.22 1.21 1.19 1.18 1.15 1.08 1.09 1.13 1.10 1.11 1.15 1.14 1.11 1.08 1.05 1.06 1.13 1.13 1.12 1.02 0.98 1.06 1.06 1.09 1.13 1.13 1.13 1.12 1.15 1.18 1.24 1.29 1.31 1.36 1.38 1.41 1.43 1.49 1.54 1.57 1.59 1.59 1.55 1.52 1.52 1.56 1.59 1.57
1.38 1.44 1.44 1.43 1.45 1.47 1.43 1.41 1.46 1.48 1.48 1.50 1.50 1.48 1.47 1.43 1.39 1.38 1.38 1.39 1.38 1.35 1.37 1.43 1.45 1.45 1.42 1.39 1.40 1.39 1.37 1.35 1.33 1.32 1.31 1.28 1.23 1.21 1.20 1.16 1.19 1.17 1.13 1.10 1.09 1.12 1.12 1.09 1.11 1.05 1.06 0.98 0.96 1.06 1.08 1.01 0.89 0.86 0.83 0.86 0.92 1.03 1.13 1.13 1.09 1.10 1.13 1.19 1.24 1.27 1.30 1.31 1.34 1.39 1.44 1.44 1.46 1.51 1.57 1.60 1.59 1.55 1.55 1.58 1.61
1.41 1.43 1.46 1.46 1.47 1.49 1.47 1.43 1.46 1.48 1.52 1.55 1.54 1.50 1.52 1.51 1.46 1.44 1.42 1.39 1.45 1.48 1.49 1.49 1.46 1.41 1.41 1.41 1.39 1.35 1.35 1.35 1.36 1.33 1.29 1.28 1.25 1.21 1.18 1.19 1.17 1.15 1.12 1.10 1.11 1.09 1.10 1.09 1.08 1.01 0.98 1.05 1.01 1.05 1.02 1.01 0.85 0.90 0.90 0.82 0.81 0.79 0.96 1.08 1.17 1.12 1.11 1.13 1.18 1.19 1.23 1.26 1.29 1.37 1.41 1.42 1.43 1.46 1.51 1.55 1.57 1.59 1.58 1.58 1.61
1.38 1.41 1.44 1.46 1.49 1.49 1.47 1.45 1.46 1.50 1.53 1.56 1.55 1.56 1.54 1.53 1.52 1.49 1.48 1.45 1.41 1.47 1.49 1.44 1.37 1.34 1.30 1.32 1.31 1.32 1.32 1.31 1.33 1.34 1.31 1.29 1.26 1.20 1.23 1.20 1.21 1.17 1.13 1.10 1.09 1.07 1.09 1.09 1.09 1.07 1.03 0.92 0.97 1.00 1.09 1.04 0.95 0.87 0.71 0.75 0.74 0.77 0.71 0.90 0.97 1.10 1.16 1.14 1.16 1.15 1.17 1.17 1.21 1.28 1.31 1.32 1.36 1.41 1.45 1.51 1.54 1.57 1.60 1.61 1.63
1.32 1.36 1.41 1.46 1.50 1.51 1.48 1.46 1.46 1.49 1.54 1.56 1.56 1.56 1.53 1.48 1.47 1.47 1.47 1.42 1.42 1.34 1.27 1.23 1.26 1.25 1.24 1.25 1.30 1.28 1.27 1.28 1.30 1.32 1.31 1.30 1.28 1.27 1.24 1.21 1.19 1.16 1.13 1.09 1.07 1.07 1.09 1.11 1.09 1.06 1.04 0.98 0.92 0.98 1.01 1.07 1.05 1.06 0.87 0.76 0.74 0.70 0.74 0.81 0.90 0.93 1.12 1.15 1.18 1.20 1.17 1.15 1.17 1.21 1.23 1.25 1.32 1.37 1.42 1.44 1.49 1.54 1.58 1.60 1.62
1.29 1.38 1.46 1.50 1.50 1.51 1.51 1.50 1.51 1.52 1.53 1.55 1.55 1.55 1.45 1.39 1.33 1.27 1.21 1.20 1.19 1.15 1.12 1.14 1.14 1.17 1.19 1.23 1.23 1.24 1.25 1.25 1.27 1.28 1.30 1.31 1.28 1.26 1.23 1.19 1.16 1.15 1.13 1.09 1.08 1.08 1.09 1.08 1.09 1.10 1.04 1.05 0.95 0.93 0.91 1.04 1.07 1.07 1.04 0.99 0.90 0.73 0.72 0.82 0.81 0.72 1.07 1.15 1.15 1.20 1.18 1.17 1.20 1.19 1.23 1.23 1.24 1.28 1.35 1.39 1.45 1.46 1.51 1.58 1.62
1.27 1.40 1.46 1.49 1.51 1.52 1.53 1.54 1.53 1.53 1.50 1.46 1.49 1.46 1.42 1.37 1.31 1.27 1.23 1.18 1.14 1.16 1.24 1.24 1.18 1.17 1.15 1.17 1.20 1.24 1.24 1.24 1.25 1.26 1.24 1.24 1.22 1.19 1.17 1.13 1.11 1.09 1.09 1.04 1.01 1.00 1.01 1.04 1.05 1.06 1.01 1.05 1.02 0.89 0.89 0.91 1.01 1.03 1.02 1.04 1.02 1.02 1.00 0.85 0.73 0.78 0.69 0.92 1.07 1.10 1.11 1.16 1.18 1.18 1.17 1.21 1.23 1.25 1.28 1.33 1.38 1.44 1.47 1.49 1.56
1.30 1.39 1.44 1.48 1.49 1.50 1.49 1.55 1.53 1.49 1.49 1.50 1.46 1.45 1.38 1.34 1.28 1.23 1.18 1.17 1.15 1.14 1.15 1.14 1.13 1.10 1.15 1.13 1.14 1.17 1.18 1.19 1.19 1.20 1.18 1.15 1.14 1.13 1.11 1.06 1.00 0.98 0.99 0.97 0.96 1.00 0.99 1.01 1.02 1.04 1.03 1.02 1.00 0.91 0.87 0.89 0.83 0.86 1.00 0.98 0.98 1.01 1.07 1.03 0.96 0.81 0.75 0.69 0.79 0.99 1.14 1.15 1.16 1.17 1.18 1.19 1.22 1.23 1.24 1.28 1.31 1.36 1.43 1.46 1.49
1.32 1.38 1.42 1.47 1.50 1.50 1.47 1.41 1.39 1.43 1.41 1.41 1.42 1.40 1.36 1.31 1.24 1.20 1.15 1.19 1.17 1.12 1.11 1.09 1.07 1.08 1.05 1.08 1.09 1.09 1.12 1.13 1.13 1.13 1.14 1.12 1.10 1.05 1.03 1.01 0.98 0.94 0.92 0.91 0.91 0.96 0.96 0.95 0.96 0.96 0.95 0.95 0.95 0.95 0.91 0.89 0.90 0.87 0.89 0.91 0.93 0.95 0.96 1.00 1.01 1.01 0.85 0.73 0.73 0.76 0.81 1.00 1.09 1.14 1.17 1.19 1.20 1.25 1.27 1.27 1.30 1.34 1.38 1.42 1.46
1.35 1.43 1.47 1.48 1.45 1.43 1.39 1.40 1.38 1.41 1.42 1.40 1.37 1.35 1.30 1.26 1.20 1.17 1.11 1.07 1.07 1.06 1.06 1.04 1.05 1.06 1.03 1.05 1.08 1.08 1.09 1.10 1.12 1.10 1.07 1.05 1.01 0.99 0.97 0.93 0.91 0.89 0.88 0.87 0.88 0.90 0.93 0.93 0.92 0.91 0.93 0.89 0.91 0.91 0.88 0.89 0.90 0.91 0.94 0.90 0.84 0.86 0.87 0.90 0.92 0.91 0.91 0.88 0.72 0.73 0.79 0.79 0.80 0.96 1.12 1.10 1.15 1.23 1.25 1.30 1.30 1.31 1.36 1.38 1.43
1.38 1.42 1.43 1.44 1.44 1.43 1.40 1.36 1.38 1.40 1.38 1.35 1.32 1.28 1.26 1.23 1.19 1.14 1.09 1.05 1.05 1.03 0.99 0.99 1.01 1.01 1.00 1.01 1.03 1.05 1.07 1.05 1.04 1.04 1.01 0.98 0.97 0.96 0.93 0.90 0.89 0.88 0.87 0.88 0.89 0.89 0.88 0.88 0.90 0.89 0.88 0.85 0.84 0.85 0.86 0.89 0.91 0.92 0.92 0.92 0.88 0.85 0.82 0.79 0.81 0.88 0.87 0.82 0.79 0.76 0.80 0.81 0.82 0.82 0.96 1.10 1.16 1.20 1.25 1.31 1.29 1.32 1.34 1.38 1.41
Wind_Speed
4 4 4 4 3 2 1 1 2 2 2 3 3 3 4 4 4 4 4 5 5 6 6 7 8 8 9 9 9 10 10 10 10 11 11 11 12 12 12 12 12 11 11 10 10 9 9 9 8 8 8 8 7 7 7 7 6 6 6 6 5 5 5 5 5 5 5 5 4 4 4 4 4 4 4 5 5 5 5 5 5 5 6 7 6
5 5 5 5 4 3 1 1 1 2 1 2 2 3 3 4 4 4 4 4 5 5 6 6 7 8 8 9 9 9 9 9 10 11 11 11 11 12 12 12 12 11 11 10 10 9 9 8 8 8 8 8 7 7 7 7 7 6 6 6 5 5 5 5 5 5 5 5 5 5 4 4 4 5 5 5 5 5 5 5 5 6 6 6 6
5 5 5 5 4 3 2 1 1 1 1 1 2 3 3 4 4 4 4 4 4 5 5 6 6 7 8 8 8 8 9 9 9 10 10 11 11 11 11 11 11 11 11 10 10 9 9 9 8 8 8 8 8 7 7 7 7 7 6 6 5 5 5 5 5 5 5 5 5 5 5 5 5 5 5 5 5 5 5 5 5 6 6 6 6
6 6 6 6 5 4 3 2 2 1 1 2 2 3 3 3 3 3 3 3 4 4 4 5 5 6 7 7 7 8 8 8 9 9 10 10 10 11 11 11 11 11 10 10 10 9 9 9 8 8 8 8 8 7 7 7 7 7 7 6 6 6 5 5 5 5 5 5 5 6 6 6 6 6 5 5 5 5 5 5 5 5 5 5 5
6 6 6 6 5 5 4 3 2 2 2 2 2 3 3 4 4 4 3 3 3 4 4 4 4 5 6 6 6 7 7 7 8 8 9 9 10 10 10 10 10 10 10 10 10 9 9 9 9 9 8 8 8 8 7 7 7 7 7 7 7 6 6 6 6 6 6 6 6 6 6 6 6 6 6 6 6 6 6 5 5 5 5 5 5
6 7 7 6 6 6 5 4 3 3 3 3 3 3 4 4 4 4 4 4 3 3 3 3 3 4 4 5 5 6 6 7 7 7 8 9 9 9 10 10 10 10 10 10 9 9 9 9 9 9 9 8 8 8 8 8 8 8 8 8 7 7 7 7 7 7 7 7 6 6 6 6 6 6 6 6 6 5 5 5 5 5 4 4 4
7 8 8 7 7 6 5 4 4 4 3 3 3 4 4 4 4 4 4 4 3 3 2 2 2 3 3 4 5 5 5 6 6 7 7 8 8 9 9 9 9 9 9 9 9 8 8 8 8 8 9 9 8 8 8 8 8 8 8 8 8 7 7 7 7 7 6 6 6 6 6 5 5 5 5 5 5 5 5 5 5 4 4 4 4
7 8 8 8 7 7 6 5 5 4 4 4 4 4 4 5 5 4 4 4 3 2 2 1 2 2 2 3 3 4 4 5 5 6 7 7 8 8 8 8 8 9 9 9 8 8 8 8 8 8 8 8 8 8 7 7 7 7 7 7 7 7 7 7 7 7 6 6 6 6 5 5 5 5 5 4 4 4 4 4 4 4 4 3 3
8 9 8 8 8 7 6 6 5 5 5 4 5 5 5 5 5 5 4 4 3 3 2 1 1 1 1 2 3 3 4 4 5 5 6 6 7 7 8 8 8 8 8 8 8 7 7 7 7 7 7 8 8 8 8 7 7 7 7 7 7 7 6 6 6 6 5 6 6 5 5 5 4 4 4 4 3 3 3 3 3 3 3 3 3
8 9 8 8 8 8 7 6 6 6 5 5 5 5 5 5 5 5 4 4 4 3 2 2 1 1 1 1 2 2 3 4 4 4 5 5 6 6 7 7 7 7 7 7 7 7 6 6 6 7 7 7 7 7 8 7 7 7 7 7 7 7 6 6 5 5 5 5 5 5 5 5 4 4 4 3 3 2 3 3 3 3 3 3 3
8 9 9 9 9 8 8 7 7 6 6 6 6 6 6 5 5 5 5 5 4 3 3 2 2 1 0 1 1 2 2 3 3 4 4 4 5 5 6 6 6 6 6 6 6 6 6 5 5 6 6 7 7 7 7 7 7 7 7 7 7 7 6 5 5 5 5 5 5 5 5 4 4 4 3 3 3 2 3 3 2 2 3 3 3
8 9 9 9 9 9 8 8 7 7 7 7 6 6 6 5 6 6 5 5 5 4 4 3 3 2 1 1 1 1 2 2 3 3 3 4 4 5 6 6 6 6 6 6 6 6 6 5 4 5 5 6 6 6 7 7 7 7 7 7 7 6 6 6 5 4 4 4 4 4 3 4 4 3 3 2 2 2 2 2 2 2 2 3 3
8 9 9 9 10 9 9 9 8 7 7 7 7 7 6 6 6 6 6 6 5 5 4 4 3 2 2 1 1 0 1 2 2 3 3 3 3 4 5 5 6 6 5 5 5 5 5 4 4 4 4 4 5 5 6 6 6 6 6 6 6 6 5 5 5 4 4 4 4 3 3 3 3 3 2 2 2 2 2 2 2 3 3 4 4
9 9 9 10 10 10 10 9 9 8 8 8 8 7 7 6 6 6 6 6 6 5 5 4 4 3 2 2 1 0 1 1 2 2 2 2 3 4 4 5 5 5 5 5 4 4 4 4 4 3 3 3 4 4 4 5 5 5 5 5 5 5 5 5 5 4 4 4 3 3 3 3 3 2 2 2 2 2 3 3 3 3 4 4 4
10 9 9 10 11 10 10 10 9 9 8 8 8 7 7 7 6 6 6 6 6 5 5 4 4 3 3 2 1 1 0 1 2 2 2 2 3 4 4 5 5 5 5 4 4 3 3 3 3 3 3 3 3 3 3 3 3 4 4 4 4 3 3 4 4 3 3 3 3 2 3 3 3 3 3 3 3 3 3 4 4 5 5 5 5
10 10 9 10 11 11 11 11 10 9 9 8 8 8 7 7 7 7 7 6 6 6 5 5 4 4 3 3 2 1 1 1 2 2 2 3 3 3 4 4 4 4 4 4 3 3 3 3 3 2 2 2 2 2 2 3 2 3 3 3 3 3 3 4 3 3 3 3 2 2 2 3 3 3 3 3 3 4 4 4 5 6 6 6 6
11 10 10 11 11 12 12 11 11 10 9 8 8 8 7 7 7 7 7 7 7 6 6 5 4 4 4 3 2 2 2 2 2 2 3 3 3 4 4 4 4 4 4 3 3 3 2 3 3 2 2 2 2 2 2 2 2 2 2 3 3 3 3 4 3 3 3 3 3 3 3 3 3 3 4 4 4 4 5 5 6 6 7 7 7
11 11 11 11 11 12 12 12 12 10 9 9 8 8 7 7 7 7 7 7 7 7 6 5 5 5 4 4 3 3 3 3 3 3 3 3 3 4 4 4 4 4 3 3 3 3 3 3 3 3 2 2 2 2 3 3 2 2 3 3 3 3 3 4 4 3 3 3 3 3 4 3 4 4 4 5 5 5 6 6 7 7 7 7 8
11 12 11 11 12 12 12 12 12 11 10 9 9 8 8 8 8 8 8 8 8 7 7 6 5 5 5 4 4 3 3 4 4 4 4 4 4 4 4 4 4 3 4 3 3 3 3 3 3 3 3 3 3 3 3 3 4 4 4 4 4 4 4 4 4 4 4 4 4 4 4 4 4 5 5 5 6 6 7 7 7 8 8 8 8
12 12 12 12 12 13 13 13 12 11 11 10 9 9 8 8 8 8 8 8 8 8 7 6 6 6 6 5 4 4 4 4 4 4 4 4 5 4 4 4 4 4 4 4 4 4 4 4 4 4 4 4 4 4 5 5 5 5 5 5 5 5 5 5 5 5 5 5 5 5 5 5 5 6 6 6 7 7 7 8 8 8 8 9 9
12 12 12 12 13 13 13 13 12 12 11 10 9 9 9 9 8 8 8 8 8 8 7 7 6 6 6 5 5 5 5 5 5 4 5 5 5 5 4 4 4 4 4 4 4 5 5 5 5 5 5 5 5 5 6 6 6 6 6 6 7 7 7 6 6 6 6 6 6 6 6 6 6 7 7 7 8 8 8 9 9 9 9 9 9
12 12 13 13 13 13 13 13 13 12 11 10 9 9 9 9 9 8 8 8 8 7 7 6 6 6 6 5 5 5 5 5 5 5 5 5 5 5 5 5 5 5 5 5 5 6 6 6 6 7 7 6 6 6 7 7 7 7 7 8 8 8 8 8 7 7 7 7 7 7 7 7 7 7 8 8 8 9 9 9 9 10 10 9 9
13 12 13 13 13 13 13 13 13 13 12 10 10 10 10 9 9 9 8 8 8 7 7 6 6 6 6 6 6 6 6 6 5 5 5 5 5 5 6 6 6 6 6 6 6 7 7 7 7 8 8 8 8 8 8 8 8 8 8 9 9 9 9 9 9 9 8 8 8 8 8 8 8 8 9 9 9 9 9 10 10 10 10 10 10
13 12 13 13 13 13 14 14 14 14 12 11 10 10 9 9 9 9 8 8 8 8 7 7 6 6 7 6 6 6 6 6 5 5 6 6 6 6 6 6 6 6 7 7 7 7 8 8 9 9 9 10 10 10 9 9 9 9 9 10 10 10 10 10 10 10 10 10 9 9 9 9 9 10 10 10 10 10 10 10 10 10 10 10 10
13 13 13 13 13 13 14 14 14 14 12 11 11 10 10 9 9 9 9 8 8 8 8 7 7 7 7 7 6 6 6 6 6 6 6 6 6 6 7 7 7 7 7 8 8 8 9 9 9 10 10 11 11 11 11 11 11 10 10 11 11 11 11 11 11 11 11 11 11 10 11 10 10 11 10 10 10 11 11 10 10 10 10 11 11
13 13 13 13 13 13 14 14 14 14 13 12 11 10 10 10 9 9 9 8 8 8 8 7 7 7 7 7 6 6 6 6 6 6 6 6 6 7 7 7 7 8 8 8 8 9 9 9 10 10 11 11 11 12 12 12 12 12 11 11 11 12 12 12 12 13 13 13 12 12 12 12 12 11 11 11 11 11 11 10 11 11 11 11 11
13 13 13 13 13 14 14 14 14 13 12 12 11 11 10 10 9 9 9 9 8 8 8 7 7 7 7 7 7 6 6 6 5 6 6 6 6 7 7 7 8 8 9 9 9 9 9 9 10 10 11 11 12 13 13 13 13 13 12 12 12 13 13 13 13 13 13 13 13 13 13 13 13 12 12 12 11 11 11 11 11 11 11 10 10
13 13 13 14 14 14 14 14 14 13 12 12 11 11 10 10 9 9 9 8 8 8 7 7 7 7 7 7 7 6 6 6 6 6 6 7 7 7 8 8 8 9 9 10 10 9 9 9 10 10 11 11 12 12 13 14 14 14 14 14 14 14 14 14 15 14 14 14 14 14 14 14 13 13 13 12 12 12 11 11 11 11 11 10 10
14 14 14 14 14 14 14 14 13 13 13 12 11 11 10 10 9 9 8 8 7 7 7 7 7 7 7 7 7 6 6 6 6 7 7 7 7 7 8 8 9 9 10 10 10 10 10 10 10 10 11 11 11 12 13 13 14 15 15 15 15 15 15 15 15 16 15 15 15 14 14 14 14 14 13 13 13 12 12 12 12 11 11 10 10
14 14 14 14 15 14 14 14 13 13 13 12 11 11 10 10 9 9 8 8 7 7 7 7 7 7 7 6 6 6 6 7 7 7 7 7 8 8 9 9 9 10 10 10 10 10 10 10 10 10 10 11 11 11 12 13 14 14 15 15 15 15 15 15 15 16 16 16 15 15 15 15 15 15 14 14 13 13 13 13 12 11 11 10 10
14 14 14 15 15 14 14 14 13 13 13 12 11 11 10 10 9 9 8 8 8 7 7 7 6 6 6 6 6 6 7 7 7 7 8 8 8 9 9 10 10 10 10 10 10 10 10 10 11 11 11 11 11 11 12 12 13 14 15 15 15 15 15 15 15 16 16 16 16 16 16 16 16 16 15 15 14 14 14 13 13 12 11 11 11
15 15 14 15 15 14 14 14 14 13 13 12 11 11 11 10 10 9 8 8 8 7 6 6 6 6 6 6 6 6 7 7 7 8 8 8 9 9 10 10 10 10 10 11 11 11 11 11 11 11 11 11 11 11 12 12 13 13 14 14 15 15 15 16 16 16 17 17 17 17 17 17 17 17 17 16 15 14 14 14 13 12 11 11 11
14 14 14 15 15 15 14 14 14 14 13 13 12 11 11 11 10 9 9 9 8 7 6 6 6 6 6 6 6 7 7 7 8 8 8 9 9 9 10 10 10 11 11 11 11 11 11 11 12 12 11 11 12 12 12 12 13 13 13 14 14 15 15 16 16 17 17 17 18 18 18 17 17 18 18 17 16 15 15 14 14 13 12 12 12
14 15 14 15 15 15 15 14 14 14 14 13 12 12 11 11 10 9 9 9 8 7 7 6 6 6 6 7 7 7 8 8 8 8 9 9 9 10 10 10 11 11 12 12 12 12 12 12 12 12 11 11 12 12 12 12 13 13 13 14 14 15 15 16 17 17 17 18 18 18 18 18 18 18 18 18 17 16 16 15 15 14 13 13 12
15 15 15 15 15 15 15 14 15 14 14 13 13 12 12 11 10 10 10 9 8 8 7 7 7 7 7 7 7 8 8 8 8 9 9 9 10 10 10 10 11 12 12 12 12 12 12 12 12 12 12 12 12 12 12 12 13 13 13 13 14 15 16 16 17 17 18 18 18 18 18 18 18 17 17 17 18 17 17 16 16 15 14 14 13
15 15 15 16 16 16 15 15 15 14 14 13 13 13 12 11 11 10 10 10 9 9 8 8 7 7 7 7 7 8 8 8 9 9 9 10 10 10 10 11 12 12 12 12 12 12 12 12 12 12 12 12 12 12 12 12 13 13 13 13 14 14 15 16 17 17 18 18 18 18 18 18 17 17 17 17 17 17 17 17 17 16 16 15 14
15 15 15 16 16 16 15 14 14 14 14 13 13 13 13 12 11 11 11 10 10 9 9 8 8 8 7 7 7 8 8 8 9 9 10 10 10 10 11 11 12 12 12 12 12 12 12 12 12 12 12 13 13 12 12 13 13 13 13 13 14 14 15 15 16 17 18 18 18 18 18 18 17 17 17 18 18 17 17 18 17 17 17 16 15
15 15 15 15 16 15 14 14 13 13 13 13 13 13 13 12 12 11 11 10 10 9 9 8 8 8 8 7 7 8 8 8 9 9 9 10 10 11 11 12 12 12 12 12 12 12 12 12 12 12 13 13 13 13 13 13 13 13 13 14 14 15 15 15 16 16 17 17 18 18 18 18 18 18 18 18 18 18 18 18 18 17 18 17 16
15 15 15 15 15 14 14 14 13 13 13 13 13 13 13 12 12 11 11 10 10 9 9 8 8 8 8 7 7 8 8 8 9 9 10 10 11 11 12 12 12 12 12 12 12 12 12 12 12 12 13 13 13 13 13 13 13 13 14 14 15 15 15 15 16 16 16 17 17 18 18 18 18 18 18 19 19 19 19 18 18 18 18 19 18
15 15 15 15 15 14 14 14 13 13 13 13 14 14 13 12 12 12 11 10 9 9 9 8 8 8 8 8 8 8 8 8 9 9 10 11 11 11 12 12 12 12 12 12 12 12 12 12 12 12 13 13 13 13 13 13 13 14 14 15 15 15 15 16 16 16 16 16 16 17 17 18 18 18 19 19 19 19 19 19 19 19 19 19 19
16 15 15 15 14 14 14 14 14 14 14 14 14 14 13 13 12 12 11 10 9 9 9 9 8 8 8 8 8 9 9 9 9 10 11 11 12 12 12 12 12 12 12 12 12 12 12 12 12 12 13 13 13 13 13 13 13 14 14 15 15 16 16 16 16 16 16 16 16 16 16 17 17 18 18 19 19 20 20 20 20 20 20 20 20
16 16 15 15 14 14 14 14 14 14 14 14 14 13 13 12 12 11 11 10 10 10 9 9 9 8 9 9 9 9 9 10 10 11 11 12 12 12 12 12 12 12 12 12 12 12 12 12 12 13 13 13 13 13 13 13 13 14 14 15 15 15 15 15 16 16 15 15 15 15 16 16 17 17 18 18 19 20 21 21 21 21 21 20 20
15 16 15 15 15 14 14 15 14 14 14 14 13 13 13 12 11 11 11 10 10 10 10 9 9 9 9 9 9 10 10 10 11 11 11 12 12 12 12 12 12 13 13 12 12 12 12 12 13 13 13 13 13 13 13 13 14 14 14 14 15 15 14 14 14 15 15 15 15 15 16 16 17 17 18 19 19 20 21 21 22 22 22 21 21
15 15 16 15 15 15 15 15 14 14 14 13 13 13 12 12 11 11 11 10 10 10 10 9 9 9 9 9 10 10 10 11 11 11 12 12 12 12 13 13 13 13 13 13 13 13 13 13 13 14 14 14 14 14 14 13 14 14 14 14 14 15 14 14 14 15 15 15 15 15 15 16 17 17 18 19 20 21 21 22 22 22 22 22 22
15 15 16 16 16 15 15 14 14 14 14 14 13 13 12 12 11 11 10 10 10 10 10 10 10 9 9 9 10 10 10 11 11 11 12 12 12 13 13 13 13 14 14 13 13 13 13 13 14 14 14 15 15 15 14 14 14 14 14 15 14 14 14 15 16 16 15 15 15 15 16 16 17 17 18 19 20 21 21 22 23 22 22 22 23
17 16 16 17 17 16 16 15 14 14 14 14 14 13 12 12 12 11 11 11 11 10 10 10 9 9 9 9 10 10 11 11 11 12 12 12 13 13 13 14 14 14 14 14 14 14 14 14 14 15 15 15 15 16 16 15 15 15 15 15 15 15 16 16 17 17 16 16 16 16 17 17 17 18 18 19 20 21 22 22 23 23 23 23 23
17 17 17 17 18 17 17 16 15 14 14 14 13 13 12 12 12 12 11 11 11 11 10 10 10 10 10 10 10 10 11 11 11 12 12 12 13 14 14 14 14 15 15 14 14 15 15 15 15 15 15 15 15 16 16 16 16 16 16 16 16 16 17 17 17 17 18 17 17 17 18 18 18 19 19 20 20 21 22 23 23 24 25 25 24
17 17 17 17 18 17 17 15 14 14 13 13 13 12 12 12 12 11 11 11 11 10 10 10 10 10 10 10 10 11 11 11 12 12 13 13 13 14 14 14 14 15 15 15 15 15 15 15 15 15 16 16 16 16 17 16 16 16 16 16 17 17 17 18 18 18 18 19 19 19 19 19 19 20 20 21 21 22 23 23 24 25 25 26 26
17 17 17 17 17 17 15 14 13 13 13 12 12 12 12 11 11 11 11 11 10 10 10 10 10 10 10 11 11 11 12 12 13 13 14 14 14 14 14 15 15 15 15 15 15 15 16 16 16 16 16 16 16 17 17 17 17 17 17 17 18 18 18 18 19 18 19 19 20 20 20 20 20 20 21 21 22 22 23 24 25 25 26 26 26
16 17 17 17 17 16 15 14 13 13 12 12 12 12 11 11 11 11 11 11 10 10 10 10 10 11 11 11 12 12 12 13 13 14 14 14 14 15 15 15 15 15 15 15 15 16 16 16 17 17 17 17 17 17 18 18 18 18 18 18 19 19 19 19 19 19 19 20 20 21 21 21 21 22 22 22 22 23 23 24 25 26 26 27 27
17 17 17 17 16 15 15 14 13 13 12 12 12 11 11 11 11 11 11 11 10 10 10 11 11 11 12 12 12 12 13 13 13 13 14 15 15 15 15 15 15 15 15 15 15 16 16 16 17 17 17 18 18 18 19 19 19 19 19 20 20 20 20 20 20 20 20 20 21 22 22 22 23 23 23 23 23 23 24 24 24 25 26 27 27
Wind_Direction
220 208 196 205 205 200 212 1 8 29 59 73 86 101 110 114 116 109 98 87 78 71 65 62 62 63 63 62 62 60 58 55 54 54 51 50 49 50 51 51 51 52 54 56 57 59 61 63 64 64 65 66 67 66 64 63 62 63 65 65 66 67 69 71 72 71 70 69 70 71 75 81 83 84 85 85 88 88 83 73 69 75 75 73 71
215 209 201 206 208 205 208 292 342 16 67 93 103 115 123 122 122 117 106 94 82 74 69 68 67 65 63 61 59 58 57 55 54 53 51 50 50 51 51 51 52 52 54 55 56 58 59 61 62 64 66 67 67 65 63 62 60 59 59 61 63 66 70 74 75 73 71 71 71 71 76 83 84 83 83 85 90 91 87 77 72 79 79 74 69
211 213 204 204 209 208 207 248 306 334 119 132 133 134 138 135 130 124 113 100 88 81 76 73 70 65 62 59 57 56 56 54 54 53 50 49 50 51 50 51 52 52 53 54 56 58 59 59 60 64 67 68 67 65 63 60 58 56 58 61 65 68 73 77 76 73 72 72 73 74 77 83 85 83 84 86 91 90 88 83 76 77 78 73 67
211 212 206 203 208 210 210 233 277 278 183 166 162 156 156 150 145 138 126 112 100 91 84 77 71 66 61 58 55 55 55 54 54 52 50 49 50 51 50 51 51 51 52 54 56 58 59 59 61 65 67 67 67 65 62 60 57 56 59 63 67 71 74 76 77 76 74 72 76 77 74 81 86 84 85 87 90 89 86 84 80 78 77 72 67
214 213 206 204 208 211 215 230 260 250 195 179 175 170 167 164 159 152 141 126 115 103 92 80 72 67 61 57 55 54 54 54 54 52 50 50 51 50 49 50 50 49 50 53 55 59 60 61 65 65 64 65 65 65 62 60 58 57 59 63 67 71 75 80 82 82 78 75 75 76 75 80 86 84 86 89 89 88 85 81 79 78 74 68 63
218 212 205 207 209 213 219 231 250 235 199 184 182 179 174 172 168 161 153 141 130 116 100 86 75 66 59 55 52 52 52 53 54 52 50 50 50 49 48 48 47 47 48 50 54 58 61 64 67 65 63 62 63 63 62 61 58 57 60 64 68 73 78 83 85 83 81 75 71 76 78 79 85 87 87 88 88 88 85 81 79 74 69 62 57
218 212 206 210 212 216 221 230 240 228 203 189 187 186 182 179 176 169 162 155 146 134 118 96 78 64 55 51 50 50 50 52 53 52 50 50 49 46 45 45 46 46 46 48 51 56 62 66 67 65 63 62 62 62 62 61 59 59 61 65 69 73 79 83 84 82 79 73 70 75 78 78 84 88 87 88 89 87 83 79 76 70 64 56 51
218 211 209 212 215 217 221 228 232 223 205 193 192 192 189 185 182 176 171 168 163 159 153 115 84 68 55 49 49 48 49 51 52 52 52 50 47 43 42 42 43 43 43 44 47 54 62 66 67 64 63 63 63 61 59 58 58 59 62 65 67 71 76 80 84 83 76 73 74 75 75 75 80 85 85 87 89 86 82 78 72 65 58 50 43
217 210 211 215 216 217 221 225 225 222 207 197 197 197 194 189 187 183 180 180 181 184 183 158 110 81 59 48 48 49 49 48 49 52 52 49 44 41 39 38 39 37 38 40 42 50 61 66 66 64 63 63 63 61 56 54 55 59 64 65 67 69 73 78 85 82 73 74 77 76 72 70 74 78 79 81 84 80 76 73 68 60 50 41 33
218 212 215 217 216 216 221 223 223 220 208 202 200 200 198 194 192 189 188 189 192 195 193 187 170 142 71 54 50 50 50 47 46 47 48 46 40 36 33 32 32 33 35 38 40 44 55 64 64 64 63 63 63 61 56 53 54 59 64 66 67 67 70 77 77 71 70 74 76 78 76 75 75 74 77 79 78 71 62 60 57 49 39 35 31
219 217 219 218 216 216 220 221 222 218 210 205 202 202 201 198 197 195 194 195 198 200 198 197 195 194 147 83 61 54 51 45 40 39 41 40 35 30 27 26 27 30 32 36 39 41 48 57 61 63 65 66 64 61 57 56 56 60 63 63 64 64 67 70 63 59 67 71 70 74 75 75 72 68 75 75 71 63 57 54 47 36 27 24 21
223 222 222 219 216 217 219 219 219 217 211 206 203 204 203 201 201 200 200 200 202 202 202 202 201 198 181 147 95 62 43 36 33 32 32 34 32 28 24 22 24 26 28 32 37 40 44 50 57 62 66 67 64 61 59 59 60 61 60 59 58 59 63 59 53 58 65 69 68 70 70 67 63 60 61 60 59 50 42 34 23 15 5 357 353
225 224 223 221 219 218 217 217 216 216 212 207 205 205 206 204 203 203 205 205 205 206 208 206 202 196 188 184 169 71 37 27 25 24 24 27 27 25 21 18 19 21 23 26 32 37 41 45 51 57 64 67 61 58 58 60 61 59 57 55 53 53 54 50 52 60 63 67 65 65 65 57 52 49 43 37 32 23 11 355 348 345 340 334 332
225 225 224 222 220 218 217 215 214 214 211 209 207 208 208 206 206 206 208 209 208 209 210 206 200 197 196 199 198 145 33 13 12 11 9 16 16 17 15 13 12 13 17 20 24 28 34 38 42 48 56 61 57 55 55 58 59 57 53 50 48 48 46 43 49 55 55 59 57 52 44 37 35 26 16 8 1 356 349 340 333 327 326 323 321
226 223 223 222 218 217 216 214 213 213 211 209 208 210 211 210 209 207 210 211 209 208 206 204 201 202 209 214 216 228 292 340 352 352 351 -0 4 8 7 8 9 7 12 14 16 18 22 27 32 38 43 48 48 46 46 49 51 50 46 40 36 31 28 26 32 38 36 39 41 35 24 20 12 2 355 346 340 338 334 331 326 322 320 317 314
228 223 223 221 217 215 213 211 212 211 210 210 211 211 211 210 210 209 211 211 208 203 201 203 207 214 222 226 229 239 271 303 321 334 336 343 349 354 356 0 3 2 5 8 7 5 4 8 16 23 26 27 25 22 24 27 33 35 30 22 13 5 2 3 6 13 11 5 5 2 359 0 351 346 346 339 334 330 328 325 323 321 319 317 311
228 224 224 221 215 213 211 209 209 209 209 211 212 212 210 209 208 209 211 210 207 203 204 208 213 221 225 229 234 243 266 285 299 316 321 328 333 339 344 350 355 356 357 358 356 349 343 345 353 0 5 2 355 350 348 352 359 3 3 356 351 348 347 350 350 346 347 347 340 333 332 337 334 333 334 331 328 325 324 323 322 321 319 318 312
228 226 225 221 215 212 209 207 207 207 209 211 211 210 208 206 206 209 211 211 210 209 213 218 222 224 226 230 237 251 267 280 290 301 309 316 323 329 334 338 345 347 346 346 344 337 329 326 330 336 343 343 335 330 324 321 320 325 331 331 333 333 330 333 335 330 333 336 328 320 321 324 322 322 323 322 321 319 319 319 321 320 319 319 315
227 226 225 221 214 210 207 206 206 206 207 209 209 209 207 205 205 208 211 214 215 216 220 226 230 228 228 232 242 258 270 279 285 291 298 304 311 319 326 329 332 334 334 334 331 324 318 314 313 315 323 328 325 319 313 308 301 302 308 312 315 313 313 316 316 315 318 320 318 317 315 313 312 312 314 314 313 313 315 315 317 318 318 317 315
227 224 223 220 213 208 206 206 205 204 205 206 209 209 207 205 205 208 211 215 217 219 222 227 230 230 231 237 248 262 273 280 282 285 291 297 305 310 315 318 317 319 322 323 319 312 306 304 302 300 304 311 315 313 308 304 296 294 297 300 301 300 304 305 303 304 305 306 308 313 312 306 304 306 308 309 308 308 310 312 313 314 315 314 313
226 223 221 217 211 208 206 205 203 202 202 205 208 208 207 206 207 209 212 213 215 217 221 226 230 232 235 240 252 263 275 282 281 284 290 293 298 301 303 304 304 308 311 313 309 304 299 297 295 290 292 297 304 309 306 301 295 290 291 294 294 294 297 297 296 298 299 299 300 304 307 303 300 302 304 306 306 305 306 308 309 310 312 312 312
222 221 218 213 210 208 206 204 202 200 201 204 207 207 206 207 208 209 210 211 213 216 222 228 232 235 236 243 253 262 271 278 280 285 291 291 292 293 293 294 297 300 303 306 304 299 295 293 291 286 284 287 293 301 302 297 292 289 287 289 290 289 290 289 291 293 294 296 296 298 300 299 299 301 302 303 303 302 303 304 306 307 309 311 311
218 217 214 209 208 207 204 203 201 200 202 205 206 205 205 207 208 206 207 210 213 219 226 231 235 236 237 244 254 261 268 274 280 285 289 289 290 290 290 291 294 295 297 301 303 299 294 292 289 284 281 282 287 292 295 294 290 287 285 285 286 284 283 284 285 287 290 292 292 294 295 295 296 299 299 299 300 300 301 301 302 304 306 308 308
213 212 210 207 206 205 203 203 202 201 203 205 205 203 205 206 206 206 208 213 217 222 228 233 236 237 238 246 256 262 266 272 277 281 285 287 289 288 288 290 291 292 292 296 300 299 294 291 287 282 280 281 285 288 290 292 290 287 285 284 285 282 280 280 280 282 285 288 289 290 291 292 293 296 297 297 297 297 298 299 299 302 304 305 304
210 209 207 206 205 205 205 203 203 203 204 205 205 204 205 206 206 208 211 216 221 225 229 234 237 239 242 249 256 260 264 269 274 279 285 289 290 289 289 290 291 292 293 295 298 298 294 291 288 283 280 280 283 285 285 288 289 287 285 284 284 282 280 279 279 279 281 284 286 286 287 289 291 293 294 295 295 295 296 296 297 299 301 302 301
209 207 205 204 204 205 205 204 204 205 205 206 205 206 207 208 209 210 212 217 223 226 230 235 239 240 244 250 254 257 261 268 273 278 285 289 291 293 293 293 293 293 294 296 296 296 294 293 291 287 283 281 281 283 283 284 286 286 285 284 284 282 281 279 279 279 280 281 281 282 283 285 288 290 291 293 292 292 293 294 296 297 298 299 299
209 206 204 203 204 205 204 204 205 205 206 206 205 207 209 211 212 212 214 218 222 226 230 235 237 239 243 246 249 253 259 265 270 275 282 286 290 293 295 296 295 296 296 297 296 294 293 293 292 291 288 285 282 281 281 282 283 284 285 284 283 283 281 280 280 280 280 280 279 278 279 281 284 287 288 289 289 289 290 292 295 295 294 297 297
208 204 203 203 204 205 204 204 206 206 206 206 206 208 210 212 212 213 216 218 221 224 228 231 234 238 241 243 246 251 257 263 268 273 279 283 287 291 293 295 296 298 298 299 299 297 295 293 291 291 291 289 286 283 281 281 281 283 284 283 283 282 281 281 281 281 280 280 279 277 276 279 280 282 285 285 286 287 287 288 292 293 291 292 295
205 203 203 204 204 204 205 205 205 205 205 206 207 209 210 211 211 213 216 216 218 222 225 228 233 237 240 242 244 248 254 261 267 272 278 283 288 291 292 294 296 298 299 300 300 300 299 297 294 292 291 290 289 286 283 281 281 282 282 282 282 282 281 281 281 281 281 280 280 277 275 276 277 278 280 281 282 284 285 285 286 289 287 287 291
203 203 204 204 205 205 205 205 205 205 205 206 208 209 210 211 211 213 213 215 217 219 221 227 233 239 241 241 241 246 254 261 269 273 279 285 288 291 293 295 298 300 300 301 301 301 301 300 298 295 293 292 290 288 286 284 283 282 282 281 281 282 281 280 279 280 281 280 280 277 275 274 274 274 275 277 280 281 281 281 281 285 284 284 287
203 203 204 205 205 205 205 205 204 205 205 206 208 209 210 210 211 212 214 216 216 217 223 230 235 241 242 240 242 249 257 263 270 275 279 284 287 290 293 296 300 302 302 302 303 303 302 301 300 298 296 294 292 289 288 288 287 285 284 282 281 281 281 281 280 280 281 281 281 279 277 274 272 271 272 273 276 278 278 278 277 279 281 281 283
203 203 205 206 205 205 205 205 205 206 206 207 208 209 209 210 210 212 216 216 216 222 230 233 238 243 241 241 247 253 261 267 272 275 279 283 287 290 294 297 300 302 304 304 304 303 303 302 301 300 298 296 294 291 290 290 289 288 286 285 283 282 282 282 281 280 281 281 281 280 278 276 272 269 269 270 272 274 274 274 273 275 277 277 279
204 204 205 205 205 205 205 206 207 207 207 206 207 208 209 209 210 214 216 216 220 229 234 236 240 241 241 245 252 258 265 272 274 276 280 283 287 290 293 297 300 302 304 303 303 304 304 303 302 302 301 299 297 294 293 291 290 289 288 287 286 284 284 283 283 283 282 280 280 279 277 277 274 269 266 267 269 270 270 269 270 272 273 272 275
205 205 206 205 204 206 207 208 208 207 207 206 207 208 208 209 212 216 217 219 226 232 236 240 242 242 246 251 256 262 268 273 275 277 281 284 288 290 293 296 300 303 303 302 302 302 302 303 303 303 303 301 300 298 296 294 292 290 289 288 287 286 285 284 284 284 283 282 281 279 277 277 276 272 267 265 265 267 266 265 266 269 270 269 271
207 208 208 207 205 206 208 209 208 207 207 207 207 207 208 211 214 217 218 222 229 233 238 242 244 247 251 254 259 265 270 273 276 279 281 285 287 289 293 296 300 301 301 301 300 300 301 301 303 304 304 303 302 301 299 297 295 294 292 291 289 287 285 285 286 286 285 284 283 282 279 277 276 273 270 266 264 265 264 263 263 265 268 268 267
210 210 209 208 207 207 208 209 208 207 207 207 207 207 209 212 215 217 219 224 230 235 240 243 247 251 253 257 261 265 269 273 276 280 283 285 287 289 293 296 298 300 300 299 298 298 299 300 302 303 304 304 304 303 301 299 298 297 295 294 292 290 289 287 287 286 286 285 283 283 280 277 275 273 272 269 266 264 262 261 261 262 265 267 265
210 208 207 207 207 206 208 208 207 207 208 208 207 207 209 213 216 219 222 226 232 237 241 245 249 251 255 258 261 264 268 273 276 280 284 286 288 291 294 295 297 299 299 298 297 297 298 299 300 302 304 305 305 304 303 302 300 299 298 297 296 295 293 291 289 288 287 285 283 282 279 276 274 272 272 270 268 265 261 260 260 260 262 265 264
208 207 206 206 205 206 208 208 207 207 208 208 209 209 211 214 218 221 224 229 234 238 241 245 248 251 255 258 260 265 268 273 277 280 284 287 290 293 294 295 296 297 297 297 296 297 298 299 300 302 304 304 305 305 305 304 303 302 301 299 299 299 297 295 293 291 289 287 284 282 279 276 274 272 271 269 268 266 263 261 261 260 260 261 262
207 206 206 206 206 207 208 208 207 208 209 210 210 211 214 217 220 222 226 230 234 237 239 243 247 251 254 258 261 265 269 273 278 281 285 289 292 294 294 295 296 296 296 296 296 297 298 300 301 302 303 303 304 304 304 304 303 303 302 302 302 301 300 298 297 295 292 289 286 283 280 278 275 273 271 269 267 265 264 263 262 261 260 258 259
208 206 205 206 207 208 208 208 208 208 209 211 212 214 216 219 221 223 226 230 234 237 239 243 247 251 254 257 261 264 270 275 280 283 287 291 293 294 294 294 295 295 296 296 296 297 297 300 301 301 302 303 303 303 304 304 303 302 302 303 304 303 301 300 298 297 295 293 289 286 283 280 277 274 272 270 267 265 264 263 263 263 261 258 257
209 207 206 208 209 209 209 208 208 208 209 212 214 216 218 220 222 224 226 230 234 236 239 243 247 250 253 256 260 265 271 277 281 284 288 291 293 294 294 294 294 295 296 296 296 297 297 299 301 302 302 303 303 304 305 305 303 303 304 304 305 304 303 302 301 298 297 296 293 290 287 283 280 277 274 271 269 266 264 263 263 263 262 259 256
208 208 208 209 210 210 209 208 208 209 211 213 216 218 220 221 223 224 226 230 234 237 240 244 247 251 253 257 262 268 274 278 281 285 287 291 293 294 294 294 294 295 296 296 296 297 298 298 300 302 303 303 303 304 304 304 303 304 306 306 307 306 304 304 304 302 299 298 296 294 290 287 284 280 277 273 270 268 267 265 264 263 262 259 256
209 209 209 210 210 210 209 209 208 210 212 215 218 220 221 222 223 224 226 230 234 237 240 243 247 252 255 259 265 270 275 279 281 285 288 291 293 294 294 294 294 295 295 295 296 296 297 298 299 301 303 302 302 302 302 302 302 304 305 306 309 310 308 306 306 305 303 301 299 296 293 290 286 283 280 276 273 270 269 266 265 263 261 259 256
210 210 210 210 211 211 210 208 209 211 214 216 218 219 219 219 221 222 226 229 232 235 239 243 248 253 257 262 268 272 277 280 283 285 288 291 293 294 294 293 293 294 294 294 294 295 296 297 299 300 301 301 300 301 301 300 300 302 304 305 308 309 309 310 310 307 305 303 301 298 297 294 290 286 283 280 276 273 270 268 266 264 261 259 256
215 215 213 211 212 213 210 209 210 212 215 216 216 217 216 216 218 221 224 228 232 235 239 243 248 253 259 265 270 275 279 283 286 288 290 292 293 293 293 293 293 293 293 293 293 294 295 296 298 298 299 299 300 300 300 299 297 297 300 303 305 306 307 310 312 310 307 304 302 300 299 297 295 291 287 283 279 276 272 269 266 264 261 259 256
217 217 214 213 214 213 211 210 212 213 215 215 214 216 215 216 219 222 225 228 232 235 238 242 248 254 260 266 272 277 282 286 289 291 292 292 292 292 293 293 293 293 293 292 292 294 295 296 297 298 298 298 299 300 300 299 297 296 297 298 299 301 303 307 309 309 308 305 303 301 299 299 298 295 291 287 282 278 274 270 267 263 261 259 257
215 216 215 213 212 212 211 211 212 213 214 214 214 216 217 217 220 224 228 231 232 234 239 244 250 255 261 266 272 278 283 287 290 292 292 292 292 293 293 293 292 292 291 290 291 292 294 295 296 297 297 297 298 298 300 300 299 298 297 297 296 296 298 301 303 306 307 306 303 301 300 300 298 297 295 291 286 281 276 272 267 264 261 259 257
214 215 213 209 209 211 211 211 211 212 213 213 213 216 218 219 222 226 229 231 232 234 239 245 250 256 261 267 272 278 283 287 289 291 292 294 294 294 294 294 293 292 290 289 290 291 291 293 294 296 297 297 298 298 299 300 300 299 299 298 297 296 296 297 298 300 303 304 303 302 301 300 298 297 296 294 290 286 280 274 269 265 262 259 257
212 211 207 206 208 210 210 209 211 211 213 213 213 216 219 221 224 226 227 229 231 234 240 245 250 256 263 269 274 279 283 287 289 291 293 295 295 295 295 295 294 293 291 290 290 290 290 291 293 295 296 297 297 297 297 298 298 299 299 298 298 298 297 296 296 297 298 300 301 302 302 301 299 297 296 294 293 289 284 278 271 266 262 260 257
208 205 205 206 207 208 208 208 210 211 212 213 214 217 219 222 224 224 224 226 229 235 241 246 253 260 266 272 276 280 283 287 290 293 294 295 295 295 295 295 294 293 292 291 291 290 290 291 292 294 295 296 296 296 295 296 296 296 297 298 298 298 298 297 297 297 296 297 298 300 301 301 301 299 297 295 293 291 287 281 275 268 263 260 258
203 202 204 205 206 207 207 207 210 211 212 213 215 217 219 221 222 222 223 227 232 238 245 250 257 264 269 274 277 280 284 288 291 293 295 297 297 296 296 296 295 293 293 292 291 291 291 292 293 294 295 296 296 295 294 294 294 294 294 295 296 297 298 298 297 297 296 296 298 299 299 300 300 299 299 297 295 293 290 284 277 270 264 260 257